| time (UTC) | temp C | wind direction | speed KPH | gust KPH | rain 1hr cm | rain 24hr cm | rain mn cm | humidity % | barometer mb |
| 20260506214602 | 13 | 135 | 1.6 | 11.3 | 0.00 | 0.00 | 0.00 | 40 | 1014.0 |
| 20260506213051 | 13 | 229 | 3.2 | 16.1 | 0.00 | 0.00 | 0.00 | 39 | 1014.1 |
| 20260506211553 | 13 | 219 | 3.2 | 20.9 | 0.00 | 0.00 | 0.00 | 39 | 1013.9 |
| 20260506210050 | 13 | 350 | 4.8 | 19.3 | 0.00 | 0.00 | 0.00 | 36 | 1013.9 |
| 20260506204552 | 13 | 237 | 3.2 | 11.3 | 0.00 | 0.00 | 0.00 | 39 | 1013.9 |
| 20260506203048 | 12 | 290 | 1.6 | 14.5 | 0.00 | 0.00 | 0.00 | 40 | 1014.1 |
| 20260506201548 | 13 | 184 | 4.8 | 16.1 | 0.00 | 0.00 | 0.00 | 35 | 1014.0 |
| 20260506200052 | 13 | 275 | 4.8 | 20.9 | 0.00 | 0.00 | 0.00 | 33 | 1014.2 |
| 20260506194548 | 13 | 178 | 4.8 | 22.5 | 0.00 | 0.00 | 0.00 | 34 | 1014.3 |
| 20260506193144 | 13 | 147 | 4.8 | 17.7 | 0.00 | 0.00 | 0.00 | 34 | 1014.3 |
| 20260506191550 | 13 | 53 | 4.8 | 14.5 | 0.00 | 0.00 | 0.00 | 36 | 1014.5 |
| 20260506190043 | 12 | 167 | 6.4 | 12.9 | 0.00 | 0.00 | 0.00 | 36 | 1014.4 |
| 20260506184541 | 12 | 354 | 3.2 | 12.9 | 0.00 | 0.00 | 0.00 | 38 | 1014.5 |
| 20260506183043 | 12 | 15 | 1.6 | 9.7 | 0.00 | 0.00 | 0.00 | 36 | 1014.4 |
| 20260506181549 | 13 | 162 | 1.6 | 22.5 | 0.00 | 0.00 | 0.00 | 37 | 1014.5 |
| 20260506180046 | 12 | 140 | 1.6 | 14.5 | 0.00 | 0.00 | 0.00 | 38 | 1014.4 |
| 20260506174537 | 12 | 245 | 3.2 | 12.9 | 0.00 | 0.00 | 0.00 | 39 | 1014.5 |
| 20260506173041 | 12 | 174 | 3.2 | 14.5 | 0.00 | 0.00 | 0.00 | 39 | 1014.7 |
| 20260506171535 | 12 | 359 | 3.2 | 9.7 | 0.00 | 0.00 | 0.00 | 41 | 1014.7 |
| 20260506170035 | 12 | 161 | 1.6 | 11.3 | 0.00 | 0.00 | 0.00 | 39 | 1014.8 |
| 20260506164534 | 12 | 187 | 6.4 | 17.7 | 0.00 | 0.00 | 0.00 | 38 | 1014.8 |
| 20260506163037 | 12 | 356 | 1.6 | 8.0 | 0.00 | 0.00 | 0.00 | 40 | 1014.7 |
| 20260506161535 | 12 | 337 | 3.2 | 20.9 | 0.00 | 0.00 | 0.00 | 39 | 1014.8 |
| 20260506160031 | 12 | 264 | 1.6 | 11.3 | 0.00 | 0.00 | 0.00 | 40 | 1014.7 |
| 20260506154529 | 11 | 115 | 1.6 | 11.3 | 0.00 | 0.00 | 0.00 | 41 | 1014.8 |
| 20260506153026 | 11 | 142 | 3.2 | 11.3 | 0.00 | 0.00 | 0.00 | 42 | 1014.7 |
| 20260506151524 | 11 | 236 | 1.6 | 14.5 | 0.00 | 0.00 | 0.00 | 42 | 1014.9 |
| 20260506150024 | 11 | 113 | 3.2 | 12.9 | 0.00 | 0.00 | 0.00 | 42 | 1014.9 |
| 20260506144624 | 11 | 281 | 0.0 | 6.4 | 0.00 | 0.00 | 0.00 | 42 | 1014.9 |
| 20260506143025 | 10 | 301 | 1.6 | 8.0 | 0.00 | 0.00 | 0.00 | 44 | 1015.0 |
| 20260506141517 | 10 | 162 | 4.8 | 9.7 | 0.00 | 0.00 | 0.00 | 46 | 1014.9 |
| 20260506140013 | 10 | 168 | 3.2 | 8.0 | 0.00 | 0.00 | 0.00 | 48 | 1014.9 |
| 20260506134511 | 8 | 166 | 0.0 | 4.8 | 0.00 | 0.00 | 0.00 | 53 | 1014.7 |
| 20260506133010 | 8 | 107 | 0.0 | 3.2 | 0.00 | 0.00 | 0.00 | 57 | 1014.4 |
| 20260506131508 | 7 | 165 | 0.0 | 1.6 | 0.00 | 0.00 | 0.00 | 59 | 1014.2 |
| 20260506130006 | 7 | 64 | 0.0 | 1.6 | 0.00 | 0.00 | 0.00 | 65 | 1014.3 |
| 20260506124503 | 6 | 10 | 0.0 | 1.6 | 0.00 | 0.08 | 0.00 | 74 | 1014.1 |
| 20260506123002 | 5 | 5 | 0.0 | 0.0 | 0.00 | 0.08 | 0.00 | 77 | 1013.8 |
| 20260506121600 | 4 | 6 | 0.0 | 0.0 | 0.00 | 0.08 | 0.00 | 81 | 1013.6 |
| 20260506120103 | 3 | 6 | 0.0 | 0.0 | 0.00 | 0.08 | 0.00 | 82 | 1013.5 |
| 20260506114557 | 3 | 8 | 0.0 | 0.0 | 0.00 | 0.13 | 0.00 | 86 | 1013.4 |
| 20260506113059 | 2 | 6 | 0.0 | 0.0 | 0.00 | 0.13 | 0.00 | 87 | 1013.2 |
| 20260506111558 | 2 | 6 | 0.0 | 0.0 | 0.00 | 0.13 | 0.00 | 88 | 1013.1 |
| 20260506110053 | 2 | 3 | 0.0 | 0.0 | 0.00 | 0.13 | 0.00 | 87 | 1013.1 |
| 20260506104556 | 2 | 4 | 0.0 | 0.0 | 0.00 | 0.13 | 0.00 | 85 | 1012.9 |
| 20260506103049 | 2 | 2 | 0.0 | 0.0 | 0.00 | 0.13 | 0.00 | 82 | 1012.6 |
| 20260506101545 | 3 | 1 | 0.0 | 0.0 | 0.00 | 0.13 | 0.00 | 81 | 1012.3 |
| 20260506100043 | 3 | 5 | 0.0 | 1.6 | 0.00 | 0.13 | 0.00 | 80 | 1012.2 |
| 20260506094540 | 3 | 352 | 0.0 | 0.0 | 0.00 | 0.13 | 0.00 | 78 | 1012.4 |
| 20260506093042 | 3 | 350 | 0.0 | 0.0 | 0.00 | 0.13 | 0.00 | 77 | 1012.3 |
| 20260506091542 | 3 | 349 | 0.0 | 0.0 | 0.00 | 0.13 | 0.00 | 78 | 1012.2 |
| 20260506090040 | 3 | 350 | 0.0 | 0.0 | 0.00 | 0.13 | 0.00 | 77 | 1012.3 |
| 20260506084538 | 3 | 351 | 0.0 | 0.0 | 0.00 | 0.13 | 0.00 | 76 | 1012.3 |
| 20260506083037 | 3 | 351 | 0.0 | 0.0 | 0.00 | 0.13 | 0.00 | 74 | 1012.0 |
| 20260506081530 | 4 | 352 | 0.0 | 0.0 | 0.00 | 0.13 | 0.00 | 68 | 1012.0 |
| 20260506073017 | 7 | 343 | 0.0 | 3.2 | 0.00 | 0.13 | 0.00 | 56 | 1011.9 |
| 20260506071516 | 7 | 4 | 1.6 | 8.0 | 0.00 | 0.13 | 0.00 | 55 | 1011.6 |
| 20260506061505 | 8 | 13 | 1.6 | 9.7 | 0.00 | 0.13 | 0.00 | 52 | 1011.6 |
| 20260506044552 | 10 | 353 | 0.0 | 6.4 | 0.00 | 0.13 | 0.13 | 47 | 1010.7 |
| 20260506043049 | 10 | 341 | 1.6 | 6.4 | 0.00 | 0.13 | 0.13 | 46 | 1010.9 |
| 20260506041554 | 10 | 342 | 0.0 | 4.8 | 0.00 | 0.13 | 0.13 | 46 | 1011.1 |
| 20260506040047 | 10 | 352 | 1.6 | 4.8 | 0.00 | 0.13 | 0.13 | 47 | 1011.1 |
| 20260506034552 | 10 | 341 | 0.0 | 6.4 | 0.00 | 0.13 | 0.13 | 51 | 1010.7 |
| 20260506033049 | 9 | 106 | 0.0 | 1.6 | 0.00 | 0.13 | 0.13 | 56 | 1010.9 |
| 20260506031542 | 9 | 118 | 0.0 | 0.0 | 0.00 | 0.13 | 0.13 | 53 | 1010.4 |
| 20260506030041 | 9 | 120 | 0.0 | 0.0 | 0.00 | 0.13 | 0.13 | 55 | 1010.5 |
| 20260506024542 | 10 | 117 | 0.0 | 0.0 | 0.00 | 0.13 | 0.13 | 51 | 1010.3 |
| 20260506023041 | 10 | 118 | 0.0 | 0.0 | 0.00 | 0.13 | 0.13 | 51 | 1010.4 |
| 20260506021547 | 10 | 118 | 0.0 | 0.0 | 0.00 | 0.13 | 0.13 | 50 | 1009.9 |
| 20260506020037 | 10 | 124 | 0.0 | 3.2 | 0.00 | 0.13 | 0.13 | 51 | 1010.0 |
| 20260506014536 | 10 | 340 | 0.0 | 1.6 | 0.00 | 0.13 | 0.13 | 49 | 1009.5 |
| 20260506013041 | 10 | 339 | 0.0 | 1.6 | 0.00 | 0.13 | 0.13 | 49 | 1009.6 |
| 20260506011558 | 11 | 319 | 0.0 | 1.6 | 0.00 | 0.13 | 0.13 | 48 | 1009.1 |
| 20260506010033 | 11 | 257 | 0.0 | 1.6 | 0.00 | 0.13 | 0.13 | 47 | 1009.2 |
| 20260506004541 | 11 | 349 | 0.0 | 3.2 | 0.00 | 0.13 | 0.13 | 44 | 1008.9 |
| 20260506003033 | 11 | 278 | 0.0 | 1.6 | 0.00 | 0.13 | 0.13 | 43 | 1008.7 |
| 20260506001532 | 11 | 41 | 0.0 | 4.8 | 0.00 | 0.13 | 0.13 | 42 | 1008.6 |
| 20260506000031 | 12 | 26 | 0.0 | 3.2 | 0.00 | 0.13 | 0.13 | 42 | 1008.8 |
| 20260505234531 | 12 | 335 | 0.0 | 3.2 | 0.00 | 0.28 | 0.13 | 41 | 1008.6 |
| 20260505233034 | 12 | 336 | 0.0 | 3.2 | 0.00 | 0.28 | 0.13 | 40 | 1008.8 |
| 20260505231538 | 12 | 5 | 1.6 | 8.0 | 0.00 | 0.28 | 0.13 | 38 | 1008.8 |
| 20260505230031 | 12 | 170 | 0.0 | 3.2 | 0.00 | 0.28 | 0.13 | 38 | 1008.8 |
| 20260505224528 | 12 | 15 | 1.6 | 6.4 | 0.00 | 0.28 | 0.13 | 38 | 1008.9 |
| 20260505223028 | 12 | 119 | 1.6 | 9.7 | 0.00 | 0.28 | 0.13 | 37 | 1009.0 |
| 20260505221529 | 13 | 322 | 1.6 | 6.4 | 0.00 | 0.28 | 0.13 | 36 | 1008.9 |
| 20260505220046 | 12 | 352 | 0.0 | 8.0 | 0.00 | 0.28 | 0.13 | 38 | 1009.0 |